Tracking 30009 objects as of 7-Dec-2024
HD Live streaming from Space Station
objects crossing your sky now

SL-8 R/B

Track SL-8 R/B now!
10-day predictions


NORAD ID: 12092
Int'l Code: 1980-099B
Perigee: 958.4 km
Apogee: 1,003.2 km
Inclination: 82.9 °
Period: 104.6 minutes
Semi major axis: 7351 km
RCS: 4.7538 m2 (large)
Launch date: December 10, 1980
Source: Commonwealth of Independent States (former USSR) (CIS)
Launch site: PLESETSK MISSILE AND SPACE COMPLEX (PKMTR)

Note: This is a ROCKET BODY
Your satellite tracking list
Your tracking list is empty




NASA's NSSDC Master Catalog

Two Line Element Set (TLE):
1 12092U 80099B   24341.89117167  .00000179  00000-0  16473-3 0  9995
2 12092  82.9419  14.4944 0030477  25.8718  94.8253 13.77260976209692
Source of the keplerian elements: AFSPC